Weather in Stepnoy Kurgan

Russia / Rostov Oblast     46°59′02″N   41°13′06″E
temp.,
°C
wind,
m/s
gust,
m/s
humid.,
%
clouds,
%
prec.,
mm/h
press.,
hPa
HPBL,
m
3 march, wed
wed300:00+1wsw101794100 0.5 1017862
03:00+1wsw101696100 0.9 1015925
06:00+1w81396100 1.3 1013735
09:00+1wnw71296100 2.0 1015667
12:00+1nw71093100 0.7 1017704
15:00+4nw796697 0.9 10191388
18:00+2wnw497290 0.2 1021308
21:000nw498381 0.4 1024298
4 march, thu
thu400:00−1w35810 0.0 1024128
03:00−1w47780 0.0 1025192
06:00−1wsw49770 0.0 1024265
09:00+2wsw610640 0.0 1025621
12:00+6wsw710530 0.0 10231125
15:00+7wsw811540 0.0 10211320
18:00+4wsw513680 0.0 1019418
21:00+2sw514810 0.0 1019419
5 march, fri
fri500:00+2sw616840 0.0 1018613
03:00+2wsw7168511 0.0 1018635
06:00+2sw7178428 0.0 1017592
09:00+4wsw9157433 0.0 1017733
12:00+8wsw8116252 0.0 1016953
15:00+10wsw7105633 0.0 10151165
18:00+8sw4106535 0.0 1014303
21:00+5ssw4127565 0.0 1014376
6 march, sat
sat600:00+5sw61668100 0.0 1013651
03:00+4sw51572100 0.0 1013571
06:00+4wsw51677100 0.0 1012611
09:00+6wsw71380100 0.0 1013742
12:00+8w71182100 0.1 1014912
15:00+2nnw5795100 1.0 1014376
18:00+1n4696100 2.0 1015374
21:00+1n5973100 2.2 1017628
7 march, sun
sun700:000nnw3770100 0.0 1019402
03:00−1wnw3473100 0.1 1021133
06:00−2nw38720 0.0 1023308
09:000wnw57460 0.0 10241199
12:00+2wnw58400 0.0 10241632
15:00+3w79420 0.0 10221609
18:00+1wsw410580 0.0 1021376
21:00−1sw613660 0.0 1020514